EW5168 Weather Reports


time (UTC)temp
F
wind
direction
speed
knots
gust
knots
rain 1hr
in
rain 24hr
in
rain mn
in
humidity
%
barometer
mb
20260506044743 76 141 2.6 7.0 0.00 0.00 0.00 1 1007.4
20260506044244 76 149 2.6 7.0 0.00 0.00 0.00 1 1007.3
20260506043742 76 236 2.6 7.0 0.00 0.00 0.00 1 1007.3
20260506043240 76 175 0.9 5.2 0.00 0.00 0.00 1 1007.4
20260506042740 76 188 0.0 2.6 0.00 0.00 0.00 1 1007.4
20260506042239 76 171 0.0 3.5 0.00 0.00 0.00 1 1007.4
20260506041739 76 171 0.9 3.5 0.00 0.00 0.00 1 1007.4
20260506041238 76 176 0.9 3.5 0.00 0.00 0.00 1 1007.3
20260506040742 76 149 1.7 6.1 0.00 0.00 0.00 1 1007.1
20260506040738 76 191 1.7 6.1 0.00 0.00 0.00 1 1007.2
20260506035738 76 183 1.7 4.3 0.00 0.00 0.00 1 1007.0
20260506035238 76 170 1.7 4.3 0.00 0.00 0.00 1 1006.9
20260506034738 76 174 1.7 5.2 0.00 0.00 0.00 1 1006.9
20260506034238 76 184 2.6 6.1 0.00 0.00 0.00 1 1006.8
20260506033736 76 219 1.7 6.1 0.00 0.00 0.00 1 1006.7
20260506033235 76 159 1.7 5.2 0.00 0.00 0.00 1 1006.7
20260506032735 76 148 2.6 5.2 0.00 0.00 0.00 1 1006.6
20260506032236 76 148 2.6 5.2 0.00 0.00 0.00 1 1006.7
20260506031736 76 162 2.6 6.1 0.00 0.00 0.00 1 1006.6
20260506031235 76 184 1.7 6.1 0.00 0.00 0.00 1 1006.5
20260506030738 76 202 2.6 8.7 0.00 0.00 0.00 1 1006.1
20260506030734 76 161 1.7 6.1 0.00 0.00 0.00 1 1006.3
20260506025737 77 161 2.6 7.0 0.00 0.00 0.00 1 1005.8
20260506025733 77 157 2.6 8.7 0.00 0.00 0.00 1 1005.8
20260506024733 77 178 2.6 7.0 0.00 0.00 0.00 1 1005.8
20260506024234 77 186 2.6 6.1 0.00 0.00 0.00 1 1005.7
20260506023738 77 188 2.6 7.0 0.00 0.00 0.00 1 1005.5
20260506023734 77 168 2.6 7.0 0.00 0.00 0.00 1 1005.5
20260506022734 77 193 2.6 6.1 0.00 0.00 0.00 1 1005.5
20260506022232 77 153 2.6 5.2 0.00 0.00 0.00 1 1005.4
20260506021732 77 161 2.6 8.7 0.00 0.00 0.00 1 1005.3
20260506021231 77 192 3.5 9.6 0.00 0.00 0.00 1 1005.2
20260506020734 77 182 2.6 9.6 0.00 0.00 0.00 1 1005.3
20260506020730 77 144 2.6 7.8 0.00 0.00 0.00 1 1005.4
20260506015729 78 150 2.6 7.8 0.00 0.00 0.00 1 1005.3
20260506015230 78 180 2.6 7.8 0.00 0.00 0.00 1 1005.2
20260506014728 78 173 2.6 7.8 0.00 0.00 0.00 1 1005.1
20260506014228 78 147 2.6 7.8 0.00 0.00 0.00 1 1005.2
20260506013729 78 144 2.6 7.0 0.00 0.00 0.00 1 1005.1
20260506013227 78 144 2.6 7.0 0.00 0.00 0.00 1 1005.0
20260506012727 78 199 2.6 6.1 0.00 0.00 0.00 1 1005.1
20260506012225 79 162 2.6 9.6 0.00 0.00 0.00 1 1004.9
20260506011723 79 137 3.5 9.6 0.00 0.00 0.00 1 1004.9
20260506011222 79 163 2.6 7.0 0.00 0.00 0.00 1 1005.0
20260506010723 79 175 2.6 6.1 0.00 0.00 0.00 1 1005.0
20260506010225 80 150 3.5 7.8 0.00 0.00 0.00 1 1004.9
20260506010221 79 162 3.5 7.8 0.00 0.00 0.00 1 1004.9
20260506005221 80 152 2.6 8.7 0.00 0.00 0.00 3 1004.8
20260506004721 80 228 3.5 8.7 0.00 0.00 0.00 5 1004.8
20260506004221 80 142 3.5 8.7 0.00 0.00 0.00 6 1004.8
20260506003719 80 244 4.3 11.3 0.00 0.00 0.00 9 1004.6
20260506003219 81 144 3.5 11.3 0.00 0.00 0.00 12 1004.5
20260506002723 81 186 3.5 8.7 0.00 0.00 0.00 13 1004.5
20260506002719 82 190 3.5 8.7 0.00 0.00 0.00 15 1004.8
20260506001717 82 150 3.5 10.4 0.00 0.00 0.00 15 1004.8
20260506001221 82 172 4.3 11.3 0.00 0.00 0.00 17 1004.9
20260506001217 82 150 4.3 11.3 0.00 0.00 0.00 17 1004.8
20260506000219 82 140 3.5 12.2 0.00 0.00 0.00 17 1004.9
20260505235715 82 203 4.3 12.2 0.00 0.00 0.00 19 1004.8
20260505235215 82 149 4.3 12.2 0.00 0.00 0.00 21 1004.8
20260505234715 82 139 4.3 12.2 0.00 0.00 0.00 21 1004.6
20260505234215 83 190 3.5 10.4 0.00 0.00 0.00 22 1004.6
20260505233715 83 178 3.5 9.6 0.00 0.00 0.00 22 1004.6
20260505233215 83 181 4.3 11.3 0.00 0.00 0.00 22 1004.5
20260505232713 83 152 4.3 11.3 0.00 0.00 0.00 23 1004.5
20260505232216 83 143 3.5 11.3 0.00 0.00 0.00 23 1004.6
20260505232212 83 200 3.5 11.3 0.00 0.00 0.00 24 1004.6
20260505231211 83 190 3.5 11.3 0.00 0.00 0.00 24 1004.5
20260505230713 83 124 4.3 9.6 0.00 0.00 0.00 26 1004.3
20260505230709 83 198 4.3 11.3 0.00 0.00 0.00 25 1004.4
20260505225713 83 196 4.3 13.9 0.00 0.00 0.00 26 1004.4
20260505225709 83 197 4.3 13.9 0.00 0.00 0.00 25 1004.4
20260505225314 83 211 4.3 13.0 0.00 0.00 0.00 25 1004.5
20260505224207 83 155 4.3 13.0 0.00 0.00 0.00 25 1004.5
20260505223706 83 165 4.3 13.0 0.00 0.00 0.00 26 1004.6
20260505223207 83 128 5.2 13.0 0.00 0.00 0.00 25 1004.5
20260505222707 83 194 5.2 16.5 0.00 0.00 0.00 25 1004.4
20260505222209 84 163 5.2 16.5 0.00 0.00 0.00 27 1004.4
20260505222205 84 213 5.2 13.9 0.00 0.00 0.00 26 1004.3
20260505221205 84 209 4.3 13.9 0.00 0.00 0.00 26 1004.3
20260505220705 84 163 4.3 11.3 0.00 0.00 0.00 25 1004.3
20260505220206 84 146 4.3 12.2 0.00 0.00 0.00 27 1004.5
20260505215705 84 167 3.5 12.2 0.00 0.00 0.00 28 1004.4
20260505215206 84 173 4.3 20.0 0.00 0.00 0.00 29 1004.4
20260505214705 84 153 4.3 20.0 0.00 0.00 0.00 31 1004.4
20260505214203 85 153 4.3 10.4 0.00 0.00 0.00 28 1004.5
20260505213703 84 178 4.3 13.9 0.00 0.00 0.00 30 1004.6
20260505213201 84 171 4.3 13.9 0.00 0.00 0.00 32 1004.8
20260505212659 85 212 4.3 12.2 0.00 0.00 0.00 32 1004.9
20260505212159 85 195 4.3 9.6 0.00 0.00 0.00 34 1005.0
20260505211703 85 192 3.5 12.2 0.00 0.00 0.00 33 1005.0
20260505211659 85 180 4.3 12.2 0.00 0.00 0.00 34 1005.0
20260505210657 85 213 4.3 11.3 0.00 0.00 0.00 33 1005.1
20260505210157 85 196 4.3 11.3 0.00 0.00 0.00 33 1005.2
20260505205658 85 192 4.3 9.6 0.00 0.00 0.00 33 1005.3
20260505205157 85 180 4.3 9.6 0.00 0.00 0.00 33 1005.4
20260505204657 85 182 4.3 10.4 0.00 0.00 0.00 34 1005.5
20260505204201 85 180 4.3 10.4 0.00 0.00 0.00 33 1005.6
20260505204157 85 238 4.3 10.4 0.00 0.00 0.00 32 1005.6
20260505203803 85 201 3.5 10.4 0.00 0.00 0.00 32 1005.6
20260505202657 85 155 3.5 13.0 0.00 0.00 0.00 30 1005.6
20260505202201 84 182 4.3 11.3 0.00 0.00 0.00 31 1005.5
20260505202156 85 210 4.3 13.0 0.00 0.00 0.00 31 1005.5
20260505201154 84 121 5.2 13.9 0.00 0.00 0.00 31 1005.5
20260505200655 84 207 5.2 13.9 0.00 0.00 0.00 30 1005.6
20260505200155 84 153 6.1 13.9 0.00 0.00 0.00 30 1005.6
20260505195654 84 194 5.2 13.9 0.00 0.00 0.00 30 1005.6
20260505195155 84 163 4.3 13.0 0.00 0.00 0.00 29 1005.8
20260505194654 84 171 5.2 13.0 0.00 0.00 0.00 30 1005.8
20260505194153 84 159 5.2 14.8 0.00 0.00 0.00 29 1005.7
20260505193653 84 194 5.2 14.8 0.00 0.00 0.00 28 1005.8
20260505193158 83 196 4.3 12.2 0.00 0.00 0.00 26 1005.9
20260505193153 83 160 5.2 12.2 0.00 0.00 0.00 28 1005.8
20260505192758 83 136 5.2 16.5 0.00 0.00 0.00 28 1005.8
20260505191651 83 157 5.2 16.5 0.00 0.00 0.00 27 1005.9
20260505191151 83 148 5.2 16.5 0.00 0.00 0.00 27 1005.9
20260505190650 83 237 6.1 16.5 0.00 0.00 0.00 26 1005.9
20260505190150 83 163 6.1 13.9 0.00 0.00 0.00 27 1005.9
20260505185651 83 209 5.2 13.9 0.00 0.00 0.00 27 1006.0
20260505185154 83 137 6.1 14.8 0.00 0.00 0.00 27 1006.1
20260505185150 83 189 6.1 14.8 0.00 0.00 0.00 23 1005.9
20260505184149 83 184 5.2 11.3 0.00 0.00 0.00 24 1006.2
20260505183649 83 186 5.2 12.2 0.00 0.00 0.00 25 1006.2
20260505183153 83 190 4.3 11.3 0.00 0.00 0.00 22 1006.4
20260505183148 83 105 5.2 12.2 0.00 0.00 0.00 26 1006.2
20260505182153 82 175 4.3 13.9 0.00 0.00 0.00 22 1006.6
20260505182149 83 211 4.3 13.9 0.00 0.00 0.00 23 1006.5
20260505181148 82 205 5.2 12.2 0.00 0.00 0.00 23 1006.6
20260505180648 82 166 4.3 12.2 0.00 0.00 0.00 22 1006.7
20260505180148 82 194 4.3 12.2 0.00 0.00 0.00 21 1006.9
20260505175649 81 148 5.2 12.2 0.00 0.00 0.00 20 1006.8
20260505175153 81 159 4.3 15.6 0.00 0.00 0.00 20 1006.9
20260505175149 81 161 5.2 10.4 0.00 0.00 0.00 19 1006.8
20260505174148 81 130 4.3 15.6 0.00 0.00 0.00 17 1007.0
20260505173644 81 178 4.3 10.4 0.00 0.00 0.00 18 1007.1
20260505173142 80 215 5.2 11.3 0.00 0.00 0.00 14 1007.1
20260505172641 80 244 5.2 11.3 0.00 0.00 0.00 14 1007.2
20260505172140 79 209 4.3 20.0 0.00 0.00 0.00 13 1007.3
20260505171639 79 165 3.5 20.0 0.00 0.00 0.00 9 1007.2
20260505171138 79 232 4.3 12.2 0.00 0.00 0.00 11 1007.3
20260505170641 79 178 4.3 12.2 0.00 0.00 0.00 11 1007.2
20260505170637 79 173 3.5 15.6 0.00 0.00 0.00 9 1007.2
20260505165636 78 205 4.3 15.6 0.00 0.00 0.00 5 1007.1
20260505165136 78 175 4.3 15.6 0.00 0.00 0.00 4 1007.1
20260505164637 78 227 4.3 11.3 0.00 0.00 0.00 9 1007.0
20260505164141 78 197 3.5 13.0 0.00 0.00 0.00 5 1007.1
20260505164137 78 220 4.3 13.0 0.00 0.00 0.00 5 1007.1
20260505163134 78 161 4.3 13.0 0.00 0.00 0.00 1 1007.1
20260505162633 77 156 5.2 14.8 0.00 0.00 0.00 1 1007.1
20260505162132 77 165 5.2 14.8 0.00 0.00 0.00 1 1007.2
20260505161633 76 178 4.3 13.0 0.00 0.00 0.00 1 1007.1
20260505161132 76 182 4.3 14.8 0.00 0.00 0.00 1 1007.1
20260505160632 76 183 4.3 14.8 0.00 0.00 0.00 1 1007.1
20260505160132 76 253 5.2 13.0 0.00 0.00 0.00 1 1007.1
20260505153130 74 196 4.3 13.9 0.00 0.00 0.00 1 1007.2
20260505152628 74 239 3.5 10.4 0.00 0.00 0.00 1 1007.3
20260505152128 74 182 3.5 11.3 0.00 0.00 0.00 1 1007.3
20260505151630 74 193 4.3 12.2 0.00 0.00 0.00 1 1007.4
20260505151626 74 190 4.3 12.2 0.00 0.00 0.00 1 1007.3
20260505150627 74 197 4.3 10.4 0.00 0.00 0.00 1 1007.3
20260505150126 74 161 3.5 10.4 0.00 0.00 0.00 1 1007.3
20260505140622 73 149 4.3 13.0 0.00 0.00 0.00 1 1006.8
20260505140122 73 190 4.3 13.0 0.00 0.00 0.00 1 1006.8
20260505130122 71 167 4.3 10.4 0.00 0.00 0.00 1 1006.5
20260505124622 71 157 4.3 9.6 0.00 0.00 0.00 1 1006.2
20260505124122 71 165 3.5 8.7 0.00 0.00 0.00 1 1006.2
20260505123621 71 180 3.5 8.7 0.00 0.00 0.00 1 1006.1
20260505123121 71 177 3.5 7.8 0.00 0.00 0.00 1 1006.1
20260505122623 71 144 3.5 7.8 0.00 0.00 0.00 1 1006.0
20260505122619 71 175 3.5 7.8 0.00 0.00 0.00 1 1006.1
20260505121620 71 181 3.5 9.6 0.00 0.00 0.00 1 1005.9
20260505121125 71 163 3.5 8.7 0.00 0.00 0.00 1 1005.8
20260505121121 71 209 3.5 9.6 0.00 0.00 0.00 1 1005.8
20260505120119 71 178 3.5 8.7 0.00 0.00 0.00 1 1005.8
20260505115619 71 144 3.5 7.8 0.00 0.00 0.00 1 1005.6
20260505115117 71 207 3.5 7.8 0.00 0.00 0.00 1 1005.6
20260505114618 72 219 3.5 7.8 0.00 0.00 0.00 1 1005.7
20260505114120 72 186 3.5 9.6 0.00 0.00 0.00 1 1005.4
20260505114116 72 163 2.6 7.8 0.00 0.00 0.00 1 1005.6
20260505113116 71 161 3.5 9.6 0.00 0.00 0.00 1 1005.5
20260505112615 71 178 3.5 12.2 0.00 0.00 0.00 1 1005.5
20260505112115 71 196 4.3 12.2 0.00 0.00 0.00 1 1005.3
20260505111613 71 227 3.5 8.7 0.00 0.00 0.00 1 1005.2
20260505111116 71 171 4.3 10.4 0.00 0.00 0.00 1 1005.5
20260505111112 71 209 4.3 10.4 0.00 0.00 0.00 1 1005.5
20260505110112 71 199 4.3 13.0 0.00 0.00 0.00 1 1005.5
20260505102105 71 189 3.5 9.6 0.00 0.00 0.00 1 1005.6
20260505101604 71 157 4.3 11.3 0.00 0.00 0.00 1 1005.6
20260505101102 71 167 4.3 12.2 0.00 0.00 0.00 1 1005.6
20260505100602 71 161 4.3 12.2 0.00 0.00 0.00 1 1005.7
20260505100101 71 152 5.2 13.9 0.00 0.00 0.00 1 1005.7
20260505095559 71 159 5.2 13.9 0.00 0.00 0.00 1 1005.6
20260505095059 71 221 6.1 13.9 0.00 0.00 0.00 1 1005.5
20260505094558 71 206 6.1 13.9 0.00 0.00 0.00 1 1005.5
20260505094057 71 167 5.2 12.2 0.00 0.00 0.00 1 1005.6
20260505093601 71 156 5.2 13.9 0.00 0.00 0.00 1 1005.7
20260505093557 71 182 5.2 13.9 0.00 0.00 0.00 1 1005.7
20260505092557 71 144 5.2 13.9 0.00 0.00 0.00 1 1005.6
20260505092056 71 191 4.3 13.9 0.00 0.00 0.00 1 1005.7
20260505091555 71 178 3.5 9.6 0.00 0.00 0.00 1 1005.7
20260505091054 71 169 4.3 10.4 0.00 0.00 0.00 1 1005.7
20260505090555 71 204 5.2 11.3 0.00 0.00 0.00 1 1005.7
20260505090055 71 210 5.2 11.3 0.00 0.00 0.00 1 1005.7
20260505085555 71 196 4.3 11.3 0.00 0.00 0.00 1 1005.7
20260505085055 71 187 4.3 11.3 0.00 0.00 0.00 1 1005.8
20260505084554 71 186 5.2 13.0 0.00 0.00 0.00 1 1005.8
20260505084055 70 227 5.2 13.0 0.00 0.00 0.00 1 1005.7
20260505083555 70 218 5.2 13.0 0.00 0.00 0.00 1 1005.7
20260505083055 70 197 5.2 13.0 0.00 0.00 0.00 1 1005.8
20260505082555 70 168 5.2 13.0 0.00 0.00 0.00 1 1005.8
20260505082055 70 171 5.2 13.0 0.00 0.00 0.00 1 1005.8
20260505081556 70 177 5.2 13.0 0.00 0.00 0.00 1 1005.9
20260505081055 71 232 5.2 13.9 0.00 0.00 0.00 1 1006.1
20260505080555 71 240 5.2 13.9 0.00 0.00 0.00 1 1006.2
20260505080055 71 161 4.3 11.3 0.00 0.00 0.00 1 1006.3
20260505075555 71 195 4.3 12.2 0.00 0.00 0.00 1 1006.4
20260505075053 71 173 4.3 12.2 0.00 0.00 0.00 1 1006.5
20260505074553 71 187 5.2 13.0 0.00 0.00 0.00 1 1006.7
20260505074053 71 203 5.2 13.0 0.00 0.00 0.00 1 1006.7
20260505073553 71 194 5.2 13.9 0.00 0.00 0.00 1 1006.9
20260505073053 71 137 4.3 13.9 0.00 0.00 0.00 1 1007.0
20260505072557 71 177 4.3 11.3 0.00 0.00 0.00 1 1007.0
20260505072553 71 150 4.3 11.3 0.00 0.00 0.00 1 1006.9
20260505071553 71 159 4.3 10.4 0.00 0.00 0.00 1 1007.1
20260505071053 71 183 3.5 10.4 0.00 0.00 0.00 1 1007.2
20260505070557 71 165 4.3 10.4 0.00 0.00 0.00 1 1007.2
20260505070552 71 161 4.3 10.4 0.00 0.00 0.00 1 1007.2
20260505065555 71 194 4.3 12.2 0.00 0.00 0.00 1 1007.3
20260505065551 71 198 4.3 12.2 0.00 0.00 0.00 1 1007.4
20260505064551 71 151 4.3 10.4 0.00 0.00 0.00 1 1007.3
20260505064050 71 157 4.3 13.0 0.00 0.00 0.00 1 1007.3
20260505063551 71 155 4.3 13.0 0.00 0.00 0.00 1 1007.4
20260505063051 71 187 5.2 13.9 0.00 0.00 0.00 1 1007.4
20260505062551 71 157 4.3 13.9 0.00 0.00 0.00 1 1007.6
20260505062051 71 164 4.3 10.4 0.00 0.00 0.00 1 1007.6
20260505061551 71 242 3.5 10.4 0.00 0.00 0.00 1 1007.7
20260505061051 71 171 4.3 9.6 0.00 0.00 0.00 1 1007.7
20260505060551 71 174 4.3 12.2 0.00 0.00 0.00 1 1007.6
20260505060055 71 220 4.3 10.4 0.00 0.00 0.00 1 1007.8
20260505060050 71 200 4.3 12.2 0.00 0.00 0.00 1 1007.6
20260505055653 71 222 4.3 10.4 0.00 0.00 0.00 1 1007.7
20260505054550 71 133 4.3 9.6 0.00 0.00 0.00 1 1007.8
20260505054047 71 207 4.3 15.6 0.00 0.00 0.00 1 1007.8
20260505053546 71 198 3.5 15.6 0.00 0.00 0.00 1 1007.9
20260505053050 71 185 3.5 9.6 0.00 0.00 0.00 1 1007.8
20260505053046 71 238 3.5 9.6 0.00 0.00 0.00 1 1007.8
20260505052651 71 183 3.5 9.6 0.00 0.00 0.00 1 1007.7
20260505051548 71 184 3.5 7.8 0.00 0.00 0.00 1 1007.8
20260505051544 71 203 3.5 9.6 0.00 0.00 0.00 1 1007.8
20260505050542 72 205 3.5 9.6 0.00 0.00 0.00 1 1007.9